Location: Bottens
(46.6171°N, 6.6605°E)
Time: 07:58:01
(UTC+00:00)

Cosmos 1825 - Pass Details

Date: 01 November 2021
Orbit: 501 x 504 km, 82.5° (Epoch: 28 November)

Event Time Altitude Azimuth Distance (km) Brightness Sun altitude
Rises 16:58:52 0° 0° (N) 2,610 5.6 -7.6°
Reaches altitude 10° 17:01:13 10° 13° (NNE) 1,721 4.6 -8.0°
Maximum altitude 17:04:30 28° 73° (ENE) 975 3.0 -8.5°
Drops below altitude 10° 17:07:46 10° 134° (SE) 1,710 4.5 -9.1°
Sets 17:10:06 0° 146° (SSE) 2,590 5.5 -9.4°
